Content
SEND FEEDBACK

Daily
Averages
Monthly
Summary
United States of America

ST. LOUIS, MISSOURI


Home > North America > United States > Missouri
Elevation: 535 feet     Latitude: 38 45N     Longitude: 090 22W

WEATHER
 
SELECT A DAY
Number of Records: 196,395;   Date Range: 1/1/95 - 7/29/14
 
SHARE

PRINT THIS DATA

[ ← Previous Day ]
WEATHER ALMANAC - FEBRUARY 12, 2013
[ Next Day → ]
[ °C ]   °F
Weather ElementAverageHighLow
Temperature35.2 °F44.1 °F (1:54 pm)24.1 °F (5:54 am)
Dewpoint25.8 °F30.9 °F (9:54 pm)21 °F (5:54 am)
Humidity70.7 %89 % (7:54 am)47 % (2:54 pm)
Barometer30.09 in30.20 in (8:54 am)29.97 in (9:54 pm)
Wind Speed1.1 mph5.8 mph (2:54 pm)
Weather ElementAverage
Visibility10 mi
Wind DirectionNNE (30.4 °)

Weather ElementTotal
Precipitation---
Heating Degree Days30.9 (Base 65)
Averaged from 23 records on February 12, 2013
WEATHER CONDITIONS BREAKOUT
WIND DIRECTION BREAKOUT
WEATHER BY HOUR - FEBRUARY 12, 2013
[ °C ]   °F
Local TimeTemperatureDewpointHumidityBarometerVisibilityWind DirectionWind SpeedGust SpeedPrecipitationEventsConditions
1:54 AM27.0 °F23.0 °F85 %30.17 in10.0 miCalmClear
2:54 AM25.0 °F21.9 °F88 %30.19 in10.0 miWSW (250°)3.5 mphClear
3:54 AM26.1 °F21.9 °F84 %30.17 in10.0 miCalmClear
4:54 AM25.0 °F21.9 °F88 %30.17 in10.0 miCalmClear
5:54 AM24.1 °F21.0 °F88 %30.17 in10.0 miCalmClear
6:54 AM24.1 °F21.0 °F88 %30.18 in10.0 miCalmScattered Clouds
7:54 AM28.9 °F26.1 °F89 %30.19 in10.0 miCalmClear
8:54 AM32.0 °F28.0 °F85 %30.20 in10.0 miCalmClear
9:54 AM37.0 °F28.0 °F70 %30.15 in10.0 miCalmMostly Cloudy
10:54 AM39.9 °F26.1 °F58 %30.15 in10.0 miVariable3.5 mphOvercast
11:54 AM43.0 °F27.0 °F53 %30.13 in10.0 miNE (50°)4.6 mphClear
12:54 PM43.0 °F25.0 °F49 %30.13 in10.0 miCalmMostly Cloudy
1:54 PM44.1 °F26.1 °F49 %30.08 in10.0 miNNE (30°)4.6 mphOvercast
2:54 PM44.1 °F25.0 °F47 %30.06 in10.0 miNNE (20°)5.8 mphClear
3:54 PM44.1 °F25.0 °F47 %30.03 in10.0 miNorth (350°)3.5 mphOvercast
4:54 PM43.0 °F25.0 °F49 %30.03 in10.0 miCalmOvercast
5:54 PM39.0 °F27.0 °F62 %30.01 in10.0 miCalmMostly Cloudy
6:54 PM37.0 °F28.0 °F70 %29.99 in10.0 miCalmMostly Cloudy
7:54 PM37.9 °F27.0 °F65 %29.98 in10.0 miCalmOvercast
8:54 PM37.0 °F28.9 °F73 %29.98 in10.0 miCalmOvercast
9:54 PM37.0 °F30.9 °F79 %29.97 in10.0 miCalmOvercast
10:54 PM36.0 °F30.0 °F79 %29.98 in10.0 miCalmOvercast
11:54 PM35.1 °F30.0 °F82 %29.98 in10.0 miCalmOvercast
Hourly data recorded from KSUS, located miles away from St. Louis, Missouri







STORIES FROM OUR PARTNERS